Location: Kershaw
(34.5481°N, 80.5823°W)
Time: 15:50:36
(UTC+00:00)

Transit 4A - Pass Details

Date: 06 October 2022
Orbit: 871 x 972 km, 66.8° (Epoch: 29 November)

Event Time Altitude Azimuth Distance (km) Brightness Sun altitude
Rises 03:52:56 0° 251° (WSW) 3,603 - -55.5°
Reaches altitude 10° 03:56:27 10° 271° (W) 2,642 - -55.9°
Maximum altitude 04:00:22 17° 311° (NW) 2,141 - -56.4°
Drops below altitude 10° 04:04:15 10° 351° (N) 2,602 - -56.8°
Sets 04:07:43 0° 11° (NNE) 3,527 - -57.2°
